SCP
0 0 0 0 0 0 0 0 0 0 0 0 0 0 -0 0 0 0 0 -0 -0 -0 0 0 0 0 0 0 0 0 -0 0 0 0 -0 0 -0 -0 0 0 0 0 0 0 -0
0 0 0 0 0 0 0 0 0 0 0 0 0 0 0 0 0 0 -0 -0 -0 -0 0 0 0 0 0 0 0 -0 -0 0 0 0 -0 0 -0 0 0 0 0 0 -0 0 -0
0 0 0 0 0 0 0 0 0 0 0 0 0 0 0 0 0 0 -0 -0 -0 -0 0 0 0 0 0 -0 -0 -0 0 0 -0 -0 -0 0 0 0 0 0 -0 -0 -0 -0 -0
0 0 0 0 0 0 0 0 0 0 0 0 0 0 0 -0 0 0 0 0 0 0 0 0 0 0 0 -0 0 -0 0 0 -0 -0 0 0 0 0 0 0 -0 -0 0 -0 -0
0 0 0 0 0 0 0 0 0 0 0 0 0 0 -0 0 0 0 0 0 0 0 0 0 0 0 0 -0 -0 -0 -0 0 -0 -0 0 0 0 0 0 -0 -0 -0 0 -0 0
0 0 0 0 0 0 0 0 0 0 0 0 0 -0 -0 0 0 0 0 0 -0 -0 0 0 0 0 0 0 -0 -0 0 0 0 0 0 0 0 0 0 -0 -0 -0 -0 0 0
0 0 0 0 -0 -0 -0 -0 0 0 0 0 -0 -0 0 0 0 0 0 0 0 0 0 0 0 0 0 0 -0 -0 0 0 -0 0 0 0 0 0 -0 -0 -0 -0 -0 -0 -0
0 0 0 0 -0 -0 -0 -0 -0 0 -0 -0 -0 -0 0 0 0 0 -0 0 0 0 0 0 0 0 0 -0 -0 -0 -0 0 -0 0 0 0 0 0 -0 -0 -0 -0 -0 -0 -0
0 0 0 0 -0 -0 -0 -0 -0 0 0 0 0 0 0 0 0 -0 0 0 0 0 0 0 0 0 0 0 0 0 0 0 0 0 0 0 0 -0 -0 -0 -0 -0 -0 -0 -0
0 0 0 0 -0 -0 -0 -0 -0 0 -0 0 0 0 0 0 0 0 0 0 0 0 0 0 0 0 0 0 0 0 0 0 -0 -0 0 0 0 0 0 -0 -0 -0 -0 -0 -0
0 0 0 0 0 0 0 0 0 0 0 0 0 0 0 0 0 -0 -0 0 0 0 0 0 0 0 0 0 0 0 0 -0 -0 -0 0 0 0 -0 0 -0 -0 -0 -0 -0 -0
0 0 0 0 -0 0 0 0 0 0 0 0 -0 0 0 0 0 0 0 0 0 0 0 0 0 0 0 0 0 0 0 0 -0 -0 0 0 0 0 0 0 -0 -0 -0 -0 0
0 0 0 0 -0 0 0 0 0 0 0 0 0 0 0 0 0 -0 0 0 0 0 0 0 0 0 0 0 0 0 -0 0 -0 0 0 0 0 0 0 0 0 -0 -0 0 0
-0 -0 0 0 0 0 0 0 0 0 0 -0 -0 0 0 0 0 0 0 0 0 0 0 0 0 0 0 0 0 0 0 0 -0 0 0 0 0 0 0 0 0 0 0 0 0
-0 -0 -0 -0 0 0 0 0 0 0 0 -0 -0 0 0 0 0 0 0 0 0 0 0 0 0 0 0 0 0 0 0 0 0 0 0 0 0 0 0 0 0 0 0 0 -0
-0 -0 -0 -0 0 0 0 0 0 0 0 0 0 -0 0 0 0 0 0 0 0 0 0 0 0 0 0 0 0 0 0 0 0 0 -0 0 0 0 0 0 0 0 -0 0 0
-0 0 -0 -0 0 0 0 0 0 0 0 0 0 0 -0 0 0 0 0 0 0 0 0 0 0 0 0 0 0 0 0 0 -0 0 -0 0 0 0 0 0 0 0 0 0 0
0 0 -0 0 0 0 0 0 0 0 0 0 0 0 0 -0 -0 0 0 0 0 0 0 0 0 0 0 0 0 0 0 0 0 0 0 0 0 0 0 0 0 0 0 0 0
0 -0 -0 0 0 0 0 0 0 0 0 0 0 0 0 0 0 0 0 0 0 0 0 0 0 0 0 0 0 0 0 0 0 0 0 0 0 0 0 0 0 0 0 0 0
-0 0 0 0 0 0 0 0 0 0 0 0 0 0 0 0 0 0 0 0 0 0 0 0 0 0 0 -0 0 0 0 0 0 0 0 0 0 0 0 0 0 0 0 0 0
0 0 0 0 0 0 0 0 -0 0 0 0 0 0 0 0 0 0 0 0 0 0 0 0 0 0 0 0 0 0 0 0 0 0 0 0 0 0 0 0 0 0 0 0 0
0 0 0 0 0 0 0 0 0 0 0 0 0 0 0 0 0 0 0 0 0 0 0 0 0 0 0 0 0 0 0 0 0 0 0 0 0 0 0 0 0 0 0 0 0
0 0 0 0 0 0 0 0 0 0 0 0 0 0 0 0 0 0 0 -0 0 0 0 0 0 0 0 -0 0 0 0 0 0 0 0 0 0 0 0 0 0 0 0 0 0
0 0 0 0 0 0 0 0 0 0 0 0 0 0 0 0 0 0 0 0 -0 0 0 0 0 0 0 0 0 0 0 0 0 0 0 0 0 0 0 0 0 0 1 0 0
0 0 0 0 0 0 0 0 0 0 0 0 0 0 0 0 0 0 0 0 -0 -0 0 0 0 0 0 0 0 0 0 0 0 0 0 0 0 0 0 0 0 1 1 0 0
0 0 0 0 0 0 0 0 0 0 0 0 0 0 0 0 0 0 0 0 -0 -0 -0 0 0 0 0 0 0 0 0 0 0 0 0 0 0 0 0 1 1 1 0 0 0
0 0 0 0 0 0 0 0 0 0 0 0 0 0 0 0 0 0 0 0 -0 -0 -0 -0 0 0 0 0 0 0 0 0 0 0 0 0 0 0 0 0 0 1 1 0 0
Wind_Speed_500mb
29 32 34 36 39 41 42 43 45 47 45 44 42 40 41 38 31 29 21 9 12 10 3 11 10 18 4 9 16 13 5 5 8 13 15 33 41 44 28 56 21 15 53 54 65
27 31 35 39 41 43 44 45 46 46 44 42 40 38 39 36 29 18 5 12 13 5 6 15 17 2 6 8 9 10 7 13 15 12 26 36 69 47 30 33 34 43 57 53 65
30 33 36 39 43 45 47 47 47 45 42 40 38 35 35 31 17 13 3 5 10 6 13 16 4 11 7 6 10 8 12 8 38 30 43 42 34 34 52 8 59 64 65 57 64
32 35 38 40 42 46 48 49 45 42 41 38 35 31 31 21 2 10 7 5 8 14 19 13 3 4 4 6 10 7 28 20 22 50 39 34 47 32 29 30 57 63 70 67 61
33 36 40 42 44 47 48 49 43 40 39 34 29 27 28 12 11 7 7 3 15 19 21 11 5 5 5 8 13 7 13 30 9 64 56 53 32 22 32 59 56 65 60 59 52
33 37 42 45 47 49 49 45 40 36 34 29 24 24 23 8 1 8 9 9 15 24 27 15 2 19 22 12 7 21 30 19 23 55 52 34 19 24 40 63 62 65 50 41 46
35 39 43 47 49 50 48 39 40 35 27 21 22 23 29 26 5 7 15 8 12 26 29 11 15 26 26 16 18 18 16 14 12 24 12 55 9 24 65 66 68 61 53 47 48
39 43 45 47 50 49 41 41 38 26 22 19 20 23 18 5 17 17 4 5 11 14 13 7 24 24 9 15 20 12 5 4 12 15 37 26 16 26 70 68 62 67 63 60 58
42 46 48 47 48 43 36 39 43 20 16 17 16 13 18 7 20 12 15 3 5 5 15 26 23 6 10 8 11 13 6 4 16 3 11 8 13 47 78 67 59 63 71 67 65
45 49 50 47 44 39 35 35 23 8 21 17 12 14 15 3 18 27 19 11 12 12 17 11 5 4 7 9 6 7 6 7 4 13 6 7 18 39 65 66 65 68 69 71 66
46 50 52 47 39 35 34 45 56 12 56 45 46 40 45 22 20 27 30 24 23 16 6 16 6 9 13 14 13 7 8 13 14 15 12 16 28 45 58 58 56 62 63 72 74
45 49 52 48 35 29 29 42 46 37 31 58 51 53 59 53 18 13 32 22 10 7 5 8 10 22 15 13 9 10 14 19 15 17 16 14 23 41 48 59 71 69 63 78 76
43 48 51 48 31 16 11 31 30 34 10 44 23 32 51 33 30 40 37 30 7 7 10 13 18 12 11 15 10 15 11 13 20 14 11 13 6 15 20 42 59 71 86 79 87
41 45 47 50 21 21 5 26 20 33 8 14 11 12 22 23 11 33 49 23 7 14 10 12 28 16 13 15 8 17 15 15 11 1 9 7 11 10 15 30 29 62 61 68 81
40 43 41 42 43 27 30 27 19 8 7 6 7 8 24 22 7 25 39 30 14 14 12 18 6 10 11 15 10 26 18 13 8 9 6 6 8 14 13 19 34 54 68 77 86
40 42 45 43 41 26 25 30 16 8 10 10 9 11 12 20 14 8 38 41 23 7 7 16 22 7 12 11 11 18 5 9 8 6 1 15 13 11 13 35 36 45 67 76 79
44 44 46 49 40 27 24 20 8 6 11 7 5 8 11 14 9 13 13 10 10 3 10 14 12 9 11 10 12 6 11 6 9 5 10 13 7 16 16 32 37 41 64 76 81
48 48 47 51 33 19 11 8 5 7 11 14 17 9 11 5 11 10 17 14 10 8 4 1 17 5 6 12 10 14 15 11 11 8 8 2 10 8 14 32 45 61 73 76 76
50 50 53 29 21 19 8 5 13 9 8 14 20 12 15 15 2 7 18 21 18 18 17 6 13 10 18 14 9 6 6 17 10 3 6 5 11 11 25 24 19 35 31 50 61
48 52 34 2 33 29 7 11 9 7 16 11 6 7 15 16 14 10 4 11 12 20 22 14 12 9 9 8 13 15 10 2 4 8 10 3 3 7 15 15 7 23 44 61 66
34 28 20 18 45 20 7 13 10 21 23 7 13 7 6 7 7 9 10 8 21 16 6 10 8 11 9 4 1 12 10 4 8 10 11 4 10 10 11 12 13 21 39 66 65
16 7 20 37 11 9 5 7 12 18 39 14 10 3 4 7 8 8 7 9 27 9 14 11 10 7 18 19 23 19 19 9 9 10 5 7 11 10 14 24 40 43 48 53 51
9 14 15 14 4 4 9 12 20 32 31 11 8 8 7 3 6 2 7 19 38 15 5 6 3 5 21 13 8 4 7 5 6 6 7 6 10 8 4 22 53 55 55 40 52
9 5 8 13 16 11 4 13 11 27 30 29 13 7 6 6 1 7 9 7 18 17 25 11 5 13 14 13 5 5 7 6 9 7 7 5 10 10 10 26 35 59 55 61 62
9 6 8 6 8 10 2 11 23 14 13 21 11 12 11 5 8 8 5 7 14 17 11 9 3 12 21 18 9 8 5 4 9 1 10 6 9 2 11 35 52 58 57 68 69
6 4 9 11 19 5 8 11 16 25 11 12 8 2 10 6 13 8 4 3 4 9 8 9 6 15 11 14 12 8 8 12 8 14 9 17 9 11 16 51 56 54 56 59 68
7 11 6 9 9 6 4 13 11 10 14 10 10 5 10 8 5 10 12 11 15 9 6 7 6 9 11 15 15 10 7 15 18 7 12 10 7 8 20 16 32 41 57 62 61
Wind_Direction_500mb
341 341 342 341 340 340 341 338 336 335 333 330 330 329 326 329 324 307 287 180 154 220 249 171 149 141 195 228 222 209 47 284 244 154 151 131 117 158 145 137 161 205 156 149 164
344 344 344 342 342 341 340 338 335 333 331 330 330 328 326 331 329 319 167 157 157 144 176 149 134 7 249 234 212 154 149 231 200 158 148 146 122 129 132 134 107 124 144 153 165
348 348 347 345 341 340 340 338 334 331 330 329 329 327 327 334 340 21 192 132 137 157 178 159 206 309 234 239 228 206 212 237 279 239 151 140 134 131 122 141 149 148 162 167 171
350 348 347 347 343 340 338 336 333 330 327 327 327 327 329 329 200 359 352 210 161 176 181 180 188 192 255 238 236 286 265 250 288 141 144 142 136 143 151 174 154 149 159 166 166
349 347 346 345 343 339 337 335 332 328 324 326 323 326 332 322 278 321 347 171 175 185 176 182 229 205 246 247 329 196 295 319 255 165 151 141 144 139 138 151 149 152 165 175 183
350 348 346 345 343 339 337 335 331 328 322 322 317 317 322 296 349 0 316 228 189 190 184 208 173 330 293 267 141 286 303 286 303 150 152 140 140 122 148 149 147 159 170 181 182
346 346 345 346 344 340 337 338 332 321 320 316 313 311 304 261 212 320 5 256 201 197 210 237 327 319 305 329 342 302 307 340 251 152 118 124 100 154 157 156 157 168 176 180 184
338 339 340 344 346 342 343 342 339 329 323 314 310 311 277 13 227 254 104 156 175 191 237 309 330 315 275 324 329 335 49 44 280 134 155 124 187 158 162 160 168 176 179 186 190
330 330 332 338 346 342 350 357 342 329 336 313 294 304 277 239 231 232 220 299 124 249 278 300 297 304 351 58 1 7 259 215 322 158 163 112 148 171 174 168 174 181 187 193 190
326 324 324 329 342 341 349 7 4 74 7 339 281 296 248 320 257 230 231 245 250 274 278 278 291 47 37 73 225 257 291 304 231 289 165 142 188 176 179 172 182 186 188 193 194
324 323 321 321 334 340 359 26 23 346 318 279 269 265 277 285 282 223 202 220 241 242 202 271 67 239 232 200 218 246 275 276 262 268 182 197 165 180 183 182 188 189 191 195 200
323 323 321 318 325 334 353 24 10 335 303 292 279 263 263 272 293 250 193 194 208 210 231 354 239 241 241 258 256 271 267 272 290 261 179 167 187 180 179 193 188 191 193 200 203
321 322 322 319 321 322 354 2 4 349 280 296 269 242 246 235 229 250 201 203 154 216 227 193 244 241 224 274 287 272 234 255 238 294 230 115 346 191 212 197 193 193 199 202 203
318 319 322 321 316 324 341 335 328 349 24 276 227 239 197 199 253 241 201 186 202 209 233 234 259 242 260 256 182 277 227 248 278 133 229 128 232 230 185 198 198 200 203 202 206
313 314 316 320 312 311 323 322 333 20 0 256 218 196 161 167 158 212 196 190 192 229 116 244 269 242 222 236 227 246 243 236 247 257 64 291 103 251 140 201 205 209 206 203 209
308 308 307 307 300 314 313 329 336 49 258 303 155 177 110 216 237 81 177 205 236 197 237 237 283 239 223 296 279 263 281 11 40 116 264 242 175 260 195 205 198 208 207 205 206
305 305 298 292 289 313 302 327 56 171 312 343 292 166 156 189 242 146 164 185 178 110 300 314 273 261 261 314 310 120 64 335 338 355 215 247 115 235 233 213 202 190 200 205 204
307 303 291 276 281 278 281 47 183 254 253 316 338 295 173 136 260 193 145 198 260 117 102 207 316 198 238 198 218 273 159 162 201 220 245 113 218 273 276 248 213 183 195 200 197
311 305 293 279 236 205 157 109 210 227 312 352 335 28 5 353 217 145 180 197 204 172 174 180 258 332 312 283 156 257 179 195 187 207 352 253 326 315 8 357 163 157 156 155 180
314 316 303 231 179 165 93 233 239 286 351 5 319 44 27 340 32 13 192 243 224 194 153 224 293 239 294 338 262 172 194 206 340 210 250 353 245 239 30 346 22 101 117 137 151
316 314 352 158 155 158 171 236 282 287 324 317 312 287 31 358 357 325 6 53 357 329 153 144 146 279 22 297 35 352 301 103 140 163 182 207 257 218 100 104 80 80 117 128 133
300 311 96 140 136 180 211 217 326 287 300 275 264 182 87 6 317 339 69 48 1 18 165 217 151 273 245 251 270 248 264 194 141 258 133 125 267 284 118 116 128 115 118 123 140
261 275 181 189 166 245 287 282 271 280 279 280 287 158 100 49 335 328 55 65 45 58 53 320 297 356 330 341 36 115 321 351 90 101 180 102 285 73 49 139 137 132 114 134 149
277 336 290 218 234 160 240 276 267 286 281 253 249 149 107 36 348 296 4 57 65 40 25 155 170 167 199 218 171 296 38 344 114 78 195 186 147 351 75 108 102 107 123 120 126
242 252 23 322 329 352 243 282 283 291 279 321 188 164 160 157 356 309 27 33 51 4 55 85 27 348 283 258 309 242 168 280 66 301 61 195 34 148 155 134 130 122 126 120 123
241 328 338 291 284 262 209 244 231 263 234 307 79 12 79 151 190 248 177 161 197 14 61 4 356 4 296 289 261 252 244 90 90 76 134 128 118 93 43 113 135 139 127 124 130
216 270 266 284 334 11 311 307 298 253 247 203 154 111 80 187 134 251 244 168 167 127 109 72 66 28 289 321 309 312 17 109 115 87 90 85 316 73 58 57 152 139 136 139 134
Wind_Speed_850mb
29 32 34 36 39 41 42 43 45 47 45 44 42 40 41 38 31 29 21 9 12 10 3 11 10 18 4 9 16 13 5 5 8 13 15 33 41 44 28 56 21 15 53 54 65
27 31 35 39 41 43 44 45 46 46 44 42 40 38 39 36 29 18 5 12 13 5 6 15 17 2 6 8 9 10 7 13 15 12 26 36 69 47 30 33 34 43 57 53 65
30 33 36 39 43 45 47 47 47 45 42 40 38 35 35 31 17 13 3 5 10 6 13 16 4 11 7 6 10 8 12 8 38 30 43 42 34 34 52 8 59 64 65 57 64
32 35 38 40 42 46 48 49 45 42 41 38 35 31 31 21 2 10 7 5 8 14 19 13 3 4 4 6 10 7 28 20 22 50 39 34 47 32 29 30 57 63 70 67 61
33 36 40 42 44 47 48 49 43 40 39 34 29 27 28 12 11 7 7 3 15 19 21 11 5 5 5 8 13 7 13 30 9 64 56 53 32 22 32 59 56 65 60 59 52
33 37 42 45 47 49 49 45 40 36 34 29 24 24 23 8 1 8 9 9 15 24 27 15 2 19 22 12 7 21 30 19 23 55 52 34 19 24 40 63 62 65 50 41 46
35 39 43 47 49 50 48 39 40 35 27 21 22 23 29 26 5 7 15 8 12 26 29 11 15 26 26 16 18 18 16 14 12 24 12 55 9 24 65 66 68 61 53 47 48
39 43 45 47 50 49 41 41 38 26 22 19 20 23 18 5 17 17 4 5 11 14 13 7 24 24 9 15 20 12 5 4 12 15 37 26 16 26 70 68 62 67 63 60 58
42 46 48 47 48 43 36 39 43 20 16 17 16 13 18 7 20 12 15 3 5 5 15 26 23 6 10 8 11 13 6 4 16 3 11 8 13 47 78 67 59 63 71 67 65
45 49 50 47 44 39 35 35 23 8 21 17 12 14 15 3 18 27 19 11 12 12 17 11 5 4 7 9 6 7 6 7 4 13 6 7 18 39 65 66 65 68 69 71 66
46 50 52 47 39 35 34 45 56 12 56 45 46 40 45 22 20 27 30 24 23 16 6 16 6 9 13 14 13 7 8 13 14 15 12 16 28 45 58 58 56 62 63 72 74
45 49 52 48 35 29 29 42 46 37 31 58 51 53 59 53 18 13 32 22 10 7 5 8 10 22 15 13 9 10 14 19 15 17 16 14 23 41 48 59 71 69 63 78 76
43 48 51 48 31 16 11 31 30 34 10 44 23 32 51 33 30 40 37 30 7 7 10 13 18 12 11 15 10 15 11 13 20 14 11 13 6 15 20 42 59 71 86 79 87
41 45 47 50 21 21 5 26 20 33 8 14 11 12 22 23 11 33 49 23 7 14 10 12 28 16 13 15 8 17 15 15 11 1 9 7 11 10 15 30 29 62 61 68 81
40 43 41 42 43 27 30 27 19 8 7 6 7 8 24 22 7 25 39 30 14 14 12 18 6 10 11 15 10 26 18 13 8 9 6 6 8 14 13 19 34 54 68 77 86
40 42 45 43 41 26 25 30 16 8 10 10 9 11 12 20 14 8 38 41 23 7 7 16 22 7 12 11 11 18 5 9 8 6 1 15 13 11 13 35 36 45 67 76 79
44 44 46 49 40 27 24 20 8 6 11 7 5 8 11 14 9 13 13 10 10 3 10 14 12 9 11 10 12 6 11 6 9 5 10 13 7 16 16 32 37 41 64 76 81
48 48 47 51 33 19 11 8 5 7 11 14 17 9 11 5 11 10 17 14 10 8 4 1 17 5 6 12 10 14 15 11 11 8 8 2 10 8 14 32 45 61 73 76 76
50 50 53 29 21 19 8 5 13 9 8 14 20 12 15 15 2 7 18 21 18 18 17 6 13 10 18 14 9 6 6 17 10 3 6 5 11 11 25 24 19 35 31 50 61
48 52 34 2 33 29 7 11 9 7 16 11 6 7 15 16 14 10 4 11 12 20 22 14 12 9 9 8 13 15 10 2 4 8 10 3 3 7 15 15 7 23 44 61 66
34 28 20 18 45 20 7 13 10 21 23 7 13 7 6 7 7 9 10 8 21 16 6 10 8 11 9 4 1 12 10 4 8 10 11 4 10 10 11 12 13 21 39 66 65
16 7 20 37 11 9 5 7 12 18 39 14 10 3 4 7 8 8 7 9 27 9 14 11 10 7 18 19 23 19 19 9 9 10 5 7 11 10 14 24 40 43 48 53 51
9 14 15 14 4 4 9 12 20 32 31 11 8 8 7 3 6 2 7 19 38 15 5 6 3 5 21 13 8 4 7 5 6 6 7 6 10 8 4 22 53 55 55 40 52
9 5 8 13 16 11 4 13 11 27 30 29 13 7 6 6 1 7 9 7 18 17 25 11 5 13 14 13 5 5 7 6 9 7 7 5 10 10 10 26 35 59 55 61 62
9 6 8 6 8 10 2 11 23 14 13 21 11 12 11 5 8 8 5 7 14 17 11 9 3 12 21 18 9 8 5 4 9 1 10 6 9 2 11 35 52 58 57 68 69
6 4 9 11 19 5 8 11 16 25 11 12 8 2 10 6 13 8 4 3 4 9 8 9 6 15 11 14 12 8 8 12 8 14 9 17 9 11 16 51 56 54 56 59 68
7 11 6 9 9 6 4 13 11 10 14 10 10 5 10 8 5 10 12 11 15 9 6 7 6 9 11 15 15 10 7 15 18 7 12 10 7 8 20 16 32 41 57 62 61
Wind_Direction_850mb
341 341 342 341 340 340 341 338 336 335 333 330 330 329 326 329 324 307 287 180 154 220 249 171 149 141 195 228 222 209 47 284 244 154 151 131 117 158 145 137 161 205 156 149 164
344 344 344 342 342 341 340 338 335 333 331 330 330 328 326 331 329 319 167 157 157 144 176 149 134 7 249 234 212 154 149 231 200 158 148 146 122 129 132 134 107 124 144 153 165
348 348 347 345 341 340 340 338 334 331 330 329 329 327 327 334 340 21 192 132 137 157 178 159 206 309 234 239 228 206 212 237 279 239 151 140 134 131 122 141 149 148 162 167 171
350 348 347 347 343 340 338 336 333 330 327 327 327 327 329 329 200 359 352 210 161 176 181 180 188 192 255 238 236 286 265 250 288 141 144 142 136 143 151 174 154 149 159 166 166
349 347 346 345 343 339 337 335 332 328 324 326 323 326 332 322 278 321 347 171 175 185 176 182 229 205 246 247 329 196 295 319 255 165 151 141 144 139 138 151 149 152 165 175 183
350 348 346 345 343 339 337 335 331 328 322 322 317 317 322 296 349 0 316 228 189 190 184 208 173 330 293 267 141 286 303 286 303 150 152 140 140 122 148 149 147 159 170 181 182
346 346 345 346 344 340 337 338 332 321 320 316 313 311 304 261 212 320 5 256 201 197 210 237 327 319 305 329 342 302 307 340 251 152 118 124 100 154 157 156 157 168 176 180 184
338 339 340 344 346 342 343 342 339 329 323 314 310 311 277 13 227 254 104 156 175 191 237 309 330 315 275 324 329 335 49 44 280 134 155 124 187 158 162 160 168 176 179 186 190
330 330 332 338 346 342 350 357 342 329 336 313 294 304 277 239 231 232 220 299 124 249 278 300 297 304 351 58 1 7 259 215 322 158 163 112 148 171 174 168 174 181 187 193 190
326 324 324 329 342 341 349 7 4 74 7 339 281 296 248 320 257 230 231 245 250 274 278 278 291 47 37 73 225 257 291 304 231 289 165 142 188 176 179 172 182 186 188 193 194
324 323 321 321 334 340 359 26 23 346 318 279 269 265 277 285 282 223 202 220 241 242 202 271 67 239 232 200 218 246 275 276 262 268 182 197 165 180 183 182 188 189 191 195 200
323 323 321 318 325 334 353 24 10 335 303 292 279 263 263 272 293 250 193 194 208 210 231 354 239 241 241 258 256 271 267 272 290 261 179 167 187 180 179 193 188 191 193 200 203
321 322 322 319 321 322 354 2 4 349 280 296 269 242 246 235 229 250 201 203 154 216 227 193 244 241 224 274 287 272 234 255 238 294 230 115 346 191 212 197 193 193 199 202 203
318 319 322 321 316 324 341 335 328 349 24 276 227 239 197 199 253 241 201 186 202 209 233 234 259 242 260 256 182 277 227 248 278 133 229 128 232 230 185 198 198 200 203 202 206
313 314 316 320 312 311 323 322 333 20 0 256 218 196 161 167 158 212 196 190 192 229 116 244 269 242 222 236 227 246 243 236 247 257 64 291 103 251 140 201 205 209 206 203 209
308 308 307 307 300 314 313 329 336 49 258 303 155 177 110 216 237 81 177 205 236 197 237 237 283 239 223 296 279 263 281 11 40 116 264 242 175 260 195 205 198 208 207 205 206
305 305 298 292 289 313 302 327 56 171 312 343 292 166 156 189 242 146 164 185 178 110 300 314 273 261 261 314 310 120 64 335 338 355 215 247 115 235 233 213 202 190 200 205 204
307 303 291 276 281 278 281 47 183 254 253 316 338 295 173 136 260 193 145 198 260 117 102 207 316 198 238 198 218 273 159 162 201 220 245 113 218 273 276 248 213 183 195 200 197
311 305 293 279 236 205 157 109 210 227 312 352 335 28 5 353 217 145 180 197 204 172 174 180 258 332 312 283 156 257 179 195 187 207 352 253 326 315 8 357 163 157 156 155 180
314 316 303 231 179 165 93 233 239 286 351 5 319 44 27 340 32 13 192 243 224 194 153 224 293 239 294 338 262 172 194 206 340 210 250 353 245 239 30 346 22 101 117 137 151
316 314 352 158 155 158 171 236 282 287 324 317 312 287 31 358 357 325 6 53 357 329 153 144 146 279 22 297 35 352 301 103 140 163 182 207 257 218 100 104 80 80 117 128 133
300 311 96 140 136 180 211 217 326 287 300 275 264 182 87 6 317 339 69 48 1 18 165 217 151 273 245 251 270 248 264 194 141 258 133 125 267 284 118 116 128 115 118 123 140
261 275 181 189 166 245 287 282 271 280 279 280 287 158 100 49 335 328 55 65 45 58 53 320 297 356 330 341 36 115 321 351 90 101 180 102 285 73 49 139 137 132 114 134 149
277 336 290 218 234 160 240 276 267 286 281 253 249 149 107 36 348 296 4 57 65 40 25 155 170 167 199 218 171 296 38 344 114 78 195 186 147 351 75 108 102 107 123 120 126
242 252 23 322 329 352 243 282 283 291 279 321 188 164 160 157 356 309 27 33 51 4 55 85 27 348 283 258 309 242 168 280 66 301 61 195 34 148 155 134 130 122 126 120 123
241 328 338 291 284 262 209 244 231 263 234 307 79 12 79 151 190 248 177 161 197 14 61 4 356 4 296 289 261 252 244 90 90 76 134 128 118 93 43 113 135 139 127 124 130
216 270 266 284 334 11 311 307 298 253 247 203 154 111 80 187 134 251 244 168 167 127 109 72 66 28 289 321 309 312 17 109 115 87 90 85 316 73 58 57 152 139 136 139 134